Omaha, IA

5:50 PM CST on November 15, 2019 (GMT -0600)
Eppley Airfield

Weather History for KOMA - October, 2019

Change the Weather History Date:

Sunday, October 20, 2019

  Actual Average Record
Temperature  
Mean Temperature 54 °F 52 °F  
Max Temperature 64 °F 63 °F 89 °F (1947)
Min Temperature 45 °F 40 °F 20 °F (1916)
Degree Days  
Heating Degree Days 10 14  
Month to date heating degree days 226 207  
Since 1 July heating degree days 230 310  
Cooling Degree Days 0 0  
Month to date cooling degree days 0 12  
Year to date cooling degree days 1406 1109  
Growing Degree Days 4 (Base 50)    
Moisture  
Dew Point 44 °F    
Average Humidity 72    
Maximum Humidity 96    
Minimum Humidity 43    
Precipitation  
Precipitation 0.01 in 0.07 in 0.81 in (1949)
Month to date precipitation 5.51 1.45  
Year to date precipitation 36.76 27.24  
Snow  
Snow 0.00 in 0.00 in - ()
Month to date snowfall 0.0 0.1  
Since 1 July snowfall 0.0 0.1  
Since 1 September snowfall 0.0 0.1  
Snow Depth 0.00 in    
Sea Level Pressure  
Sea Level Pressure 29.70 in    
Wind  
Wind Speed 11 mph ()    
Max Wind Speed 32 mph    
Max Gust Speed 47 mph    
Visibility 10.0 miles    
Events Rain    
T = Trace of Precipitation, MM = Missing Value Source: Averaged Metar Reports

Daily Weather History Graph

Daily Weather History Graph

Search for Another Location

Airport or City:

Astronomy

Oct. 20, 2019 Rise Set
Actual Time 7:40 AM CDT 6:35 PM CDT
Civil Twilight 7:12 AM CDT 7:03 PM CDT
Nautical Twilight 6:40 AM CDT 7:35 PM CDT
Astronomical Twilight 6:08 AM CDT 8:07 PM CDT
Moon 11:42 PM CDT (10/20) 2:12 PM CDT (10/20)
Length of Visible Light 11h 50m
Length of Day
10h 54m
Waning Gibbous, 59% of the Moon is Illuminated
Oct 20
Waning Gibbous
Oct 21
Last Quarter
Oct 27
New
Nov 4
First Quarter
Nov 12
Full

Hourly Weather History & Observations

Time (CDT) Temp. Windchill Dew Point Humidity Pressure Visibility Wind Dir Wind Speed Gust Speed Precip Events Conditions
12:52 AM 48.9 °F - 42.1 °F 77% 29.79 in 10.0 mi SSE 6.9 mph - N/A   Clear
1:52 AM 48.9 °F - 42.1 °F 77% 29.78 in 10.0 mi SSE 8.1 mph - N/A   Clear
2:52 AM 46.0 °F 41.9 °F 41.0 °F 83% 29.79 in 10.0 mi SSE 8.1 mph - N/A   Clear
3:52 AM 48.0 °F - 43.0 °F 83% 29.78 in 10.0 mi SE 5.8 mph - N/A   Clear
4:52 AM 45.0 °F 40.6 °F 43.0 °F 93% 29.78 in 10.0 mi SE 8.1 mph - N/A   Clear
5:52 AM 46.9 °F - 43.0 °F 86% 29.78 in 10.0 mi South 8.1 mph - N/A   Clear
6:52 AM 46.9 °F - 42.1 °F 83% 29.79 in 10.0 mi SSE 6.9 mph - N/A   Clear
7:52 AM 45.0 °F 40.6 °F 42.1 °F 90% 29.78 in 10.0 mi SSE 8.1 mph - N/A   Mostly Cloudy
8:52 AM 51.1 °F - 46.0 °F 83% 29.79 in 10.0 mi SSE 8.1 mph - N/A   Mostly Cloudy
9:52 AM 52.0 °F - 48.9 °F 89% 29.81 in 10.0 mi SSE 10.4 mph - N/A   Mostly Cloudy
10:52 AM 55.0 °F - 50.0 °F 83% 29.78 in 10.0 mi SSE 13.8 mph - N/A   Mostly Cloudy
11:52 AM 60.1 °F - 50.0 °F 69% 29.75 in 10.0 mi SE 25.3 mph - 0.00 in Rain Light Rain
12:52 PM 63.0 °F - 45.0 °F 52% 29.70 in 10.0 mi SE 25.3 mph 39.1 mph 0.00 in   Mostly Cloudy
1:52 PM 63.0 °F - 44.1 °F 50% 29.72 in 10.0 mi SSE 21.9 mph 26.5 mph N/A   Mostly Cloudy
2:52 PM 63.0 °F - 43.0 °F 48% 29.70 in 10.0 mi SSE 18.4 mph 27.6 mph 0.00 in Rain Light Rain
3:52 PM 62.1 °F - 41.0 °F 46% 29.65 in 10.0 mi SE 20.7 mph 29.9 mph 0.00 in   Mostly Cloudy
4:52 PM 62.1 °F - 39.0 °F 43% 29.64 in 10.0 mi SE 18.4 mph 32.2 mph N/A   Mostly Cloudy
5:52 PM 61.0 °F - 41.0 °F 48% 29.61 in 10.0 mi SE 26.5 mph 46.0 mph 0.00 in Rain Light Rain
6:52 PM 59.0 °F - 41.0 °F 51% 29.62 in 10.0 mi SE 19.6 mph 32.2 mph 0.00 in   Overcast
7:52 PM 57.9 °F - 42.1 °F 56% 29.62 in 10.0 mi SSE 18.4 mph 26.5 mph N/A   Overcast
8:52 PM 57.9 °F - 44.1 °F 60% 29.61 in 10.0 mi SSE 19.6 mph 29.9 mph N/A   Overcast
9:44 PM 55.9 °F - 48.9 °F 77% 29.63 in 10.0 mi South 9.2 mph - 0.01 in Rain Light Rain
9:52 PM 55.0 °F - 48.9 °F 80% 29.61 in 10.0 mi SSE 9.2 mph - 0.01 in Rain Light Rain
10:52 PM 53.1 °F - 50.0 °F 89% 29.57 in 10.0 mi SE 10.4 mph - 0.00 in   Mostly Cloudy
11:52 PM 52.0 °F - 50.0 °F 93% 29.53 in 10.0 mi SE 9.2 mph - N/A   Mostly Cloudy